| time (UTC) | temp C | wind direction | speed KPH | gust KPH | rain 1hr cm | rain 24hr cm | rain mn cm | humidity % | barometer mb |
| 20260510081527 | 11 | 330 | 1.6 | 4.8 | 0.03 | 1.55 | 0.18 | 96 | 1009.3 |
| 20260510080026 | 11 | 338 | 0.0 | 6.4 | 0.00 | 1.52 | 0.15 | 96 | 1009.1 |
| 20260510074532 | 11 | 245 | 0.0 | 3.2 | 0.00 | 1.55 | 0.15 | 96 | 1008.8 |
| 20260510073026 | 11 | 245 | 1.6 | 3.2 | 0.00 | 1.55 | 0.15 | 95 | 1008.7 |
| 20260510071523 | 11 | 245 | 0.0 | 3.2 | 0.00 | 1.55 | 0.15 | 95 | 1008.7 |
| 20260510070022 | 11 | 245 | 1.6 | 4.8 | 0.00 | 1.55 | 0.15 | 95 | 1008.5 |
| 20260510064519 | 11 | 241 | 1.6 | 6.4 | 0.00 | 1.60 | 0.15 | 95 | 1008.0 |
| 20260510063019 | 12 | 223 | 4.8 | 9.7 | 0.00 | 1.60 | 0.15 | 96 | 1008.0 |
| 20260510061526 | 12 | 214 | 6.4 | 12.9 | 0.00 | 1.60 | 0.15 | 96 | 1008.2 |
| 20260510060031 | 12 | 206 | 9.7 | 19.3 | 0.00 | 1.60 | 0.15 | 97 | 1008.5 |
| 20260510054513 | 12 | 207 | 4.8 | 11.3 | 0.00 | 1.60 | 0.15 | 96 | 1008.5 |
| 20260510053010 | 12 | 92 | 0.0 | 3.2 | 0.00 | 1.60 | 0.15 | 96 | 1008.4 |
| 20260510051510 | 12 | 92 | 0.0 | 4.8 | 0.03 | 1.60 | 0.15 | 96 | 1008.6 |
| 20260510050007 | 12 | 355 | 1.6 | 4.8 | 0.15 | 1.60 | 0.15 | 96 | 1008.5 |
| 20260510044506 | 12 | 178 | 0.0 | 4.8 | 0.20 | 1.65 | 0.15 | 96 | 1008.4 |
| 20260510043006 | 12 | 190 | 6.4 | 11.3 | 0.28 | 1.65 | 0.15 | 96 | 1008.4 |
| 20260510041508 | 12 | 157 | 1.6 | 8.0 | 0.33 | 1.60 | 0.10 | 96 | 1008.6 |
| 20260510040059 | 12 | 202 | 1.6 | 4.8 | 0.30 | 1.50 | 0.00 | 96 | 1008.6 |
| 20260510034558 | 12 | 223 | 3.2 | 6.4 | 0.25 | 1.45 | 1.42 | 96 | 1008.6 |
| 20260510033100 | 13 | 252 | 8.0 | 32.2 | 0.18 | 1.40 | 1.37 | 96 | 1008.9 |
| 20260510031626 | 12 | 202 | 14.5 | 20.9 | 0.08 | 1.30 | 1.27 | 96 | 1007.6 |
| 20260510030055 | 12 | 184 | 9.7 | 17.7 | 0.00 | 1.22 | 1.19 | 96 | 1007.6 |
| 20260510024554 | 12 | 167 | 8.0 | 12.9 | 0.00 | 1.24 | 1.19 | 95 | 1007.7 |
| 20260510023059 | 12 | 188 | 9.7 | 12.9 | 0.03 | 1.24 | 1.19 | 95 | 1007.9 |
| 20260510021554 | 12 | 207 | 6.4 | 14.5 | 0.18 | 1.24 | 1.19 | 95 | 1007.9 |
| 20260510020054 | 12 | 202 | 11.3 | 16.1 | 0.30 | 1.24 | 1.19 | 94 | 1008.1 |
| 20260510014552 | 12 | 210 | 9.7 | 12.9 | 0.79 | 1.24 | 1.19 | 94 | 1007.7 |
| 20260510013053 | 12 | 230 | 0.0 | 4.8 | 0.79 | 1.22 | 1.17 | 94 | 1008.0 |
| 20260510011608 | 12 | 287 | 3.2 | 11.3 | 0.64 | 1.07 | 1.02 | 93 | 1008.1 |
| 20260510010104 | 13 | 304 | 9.7 | 20.9 | 0.51 | 0.94 | 0.89 | 91 | 1007.9 |
| 20260510004551 | 15 | 336 | 11.3 | 29.0 | 0.03 | 0.46 | 0.41 | 80 | 1007.1 |
| 20260510003050 | 17 | 203 | 8.0 | 16.1 | 0.00 | 0.43 | 0.38 | 66 | 1005.9 |
| 20260510001549 | 17 | 206 | 11.3 | 25.7 | 0.00 | 0.43 | 0.38 | 66 | 1005.6 |
| 20260510000050 | 18 | 198 | 19.3 | 35.4 | 0.00 | 0.43 | 0.38 | 64 | 1005.4 |
| 20260509234549 | 18 | 204 | 16.1 | 27.4 | 0.00 | 0.43 | 0.38 | 64 | 1005.2 |
| 20260509233048 | 18 | 229 | 12.9 | 27.4 | 0.00 | 0.43 | 0.38 | 64 | 1005.2 |
| 20260509231557 | 18 | 204 | 14.5 | 27.4 | 0.00 | 0.43 | 0.38 | 64 | 1005.0 |
| 20260509230047 | 19 | 222 | 17.7 | 33.8 | 0.00 | 0.43 | 0.38 | 62 | 1004.9 |
| 20260509224545 | 19 | 202 | 16.1 | 35.4 | 0.00 | 0.43 | 0.38 | 63 | 1005.0 |
| 20260509223047 | 19 | 190 | 17.7 | 35.4 | 0.00 | 0.43 | 0.38 | 62 | 1005.2 |
| 20260509221544 | 19 | 205 | 22.5 | 35.4 | 0.00 | 0.43 | 0.38 | 63 | 1005.2 |
| 20260509220046 | 19 | 206 | 17.7 | 33.8 | 0.00 | 0.43 | 0.38 | 63 | 1005.0 |
| 20260509214542 | 19 | 215 | 24.1 | 37.0 | 0.00 | 0.43 | 0.38 | 64 | 1005.1 |
| 20260509213057 | 19 | 208 | 19.3 | 32.2 | 0.00 | 0.43 | 0.38 | 62 | 1005.5 |
| 20260509211606 | 19 | 190 | 22.5 | 32.2 | 0.00 | 0.43 | 0.38 | 65 | 1005.5 |
| 20260509210040 | 19 | 213 | 19.3 | 35.4 | 0.00 | 0.43 | 0.38 | 65 | 1005.5 |
| 20260509204551 | 19 | 227 | 14.5 | 30.6 | 0.00 | 0.48 | 0.38 | 65 | 1005.5 |
| 20260509203042 | 19 | 217 | 16.1 | 27.4 | 0.00 | 0.48 | 0.38 | 66 | 1005.9 |
| 20260509201533 | 18 | 220 | 24.1 | 37.0 | 0.00 | 0.48 | 0.38 | 68 | 1006.0 |
| 20260509200031 | 18 | 204 | 17.7 | 33.8 | 0.00 | 0.48 | 0.38 | 69 | 1006.4 |
| 20260509194529 | 18 | 208 | 19.3 | 32.2 | 0.00 | 0.48 | 0.38 | 68 | 1006.7 |
| 20260509193026 | 18 | 212 | 16.1 | 35.4 | 0.00 | 0.48 | 0.38 | 70 | 1006.7 |
| 20260509191523 | 18 | 197 | 20.9 | 35.4 | 0.00 | 0.48 | 0.38 | 71 | 1007.0 |
| 20260509190023 | 18 | 242 | 17.7 | 35.4 | 0.00 | 0.48 | 0.38 | 74 | 1007.1 |
| 20260509184518 | 17 | 212 | 22.5 | 32.2 | 0.00 | 0.53 | 0.38 | 74 | 1007.2 |
| 20260509183022 | 16 | 214 | 22.5 | 32.2 | 0.00 | 0.53 | 0.38 | 77 | 1007.3 |
| 20260509181515 | 17 | 209 | 19.3 | 37.0 | 0.00 | 0.53 | 0.38 | 76 | 1007.3 |
| 20260509180013 | 16 | 205 | 19.3 | 35.4 | 0.00 | 0.53 | 0.38 | 81 | 1007.1 |
| 20260509174512 | 16 | 176 | 24.1 | 33.8 | 0.00 | 0.53 | 0.38 | 80 | 1007.4 |
| 20260509173012 | 16 | 207 | 9.7 | 27.4 | 0.00 | 0.53 | 0.38 | 83 | 1007.5 |
| 20260509171509 | 16 | 244 | 14.5 | 29.0 | 0.00 | 0.53 | 0.38 | 83 | 1007.5 |
| 20260509170006 | 15 | 230 | 8.0 | 20.9 | 0.00 | 0.53 | 0.38 | 87 | 1007.6 |
| 20260509164504 | 15 | 212 | 8.0 | 17.7 | 0.00 | 0.53 | 0.38 | 87 | 1007.7 |
| 20260509163003 | 14 | 186 | 8.0 | 19.3 | 0.00 | 0.53 | 0.38 | 89 | 1007.7 |
| 20260509161503 | 14 | 236 | 8.0 | 27.4 | 0.00 | 0.53 | 0.38 | 88 | 1007.7 |
| 20260509160002 | 14 | 240 | 8.0 | 24.1 | 0.00 | 0.53 | 0.38 | 90 | 1007.5 |
| 20260509154559 | 14 | 229 | 9.7 | 17.7 | 0.00 | 0.53 | 0.38 | 92 | 1007.4 |
| 20260509153055 | 13 | 236 | 9.7 | 22.5 | 0.00 | 0.53 | 0.38 | 93 | 1007.4 |
| 20260509151553 | 12 | 226 | 12.9 | 19.3 | 0.00 | 0.53 | 0.38 | 94 | 1007.3 |
| 20260509150052 | 12 | 209 | 14.5 | 25.7 | 0.00 | 0.53 | 0.38 | 95 | 1007.4 |
| 20260509144550 | 12 | 187 | 16.1 | 27.4 | 0.00 | 0.53 | 0.38 | 96 | 1007.3 |
| 20260509143051 | 12 | 199 | 11.3 | 27.4 | 0.03 | 0.53 | 0.38 | 96 | 1007.3 |
| 20260509141545 | 11 | 190 | 16.1 | 29.0 | 0.05 | 0.53 | 0.38 | 97 | 1007.3 |
| 20260509140046 | 11 | 206 | 9.7 | 17.7 | 0.05 | 0.53 | 0.38 | 97 | 1007.3 |
| 20260509134550 | 11 | 197 | 9.7 | 17.7 | 0.05 | 0.53 | 0.38 | 96 | 1007.6 |
| 20260509133053 | 11 | 212 | 8.0 | 17.7 | 0.03 | 0.51 | 0.36 | 96 | 1007.6 |
| 20260509131542 | 11 | 225 | 9.7 | 17.7 | 0.00 | 0.48 | 0.33 | 96 | 1007.7 |
| 20260509130041 | 11 | 223 | 9.7 | 20.9 | 0.00 | 0.48 | 0.33 | 96 | 1007.7 |
| 20260509124539 | 11 | 205 | 11.3 | 20.9 | 0.00 | 0.48 | 0.33 | 96 | 1007.6 |
| 20260509123038 | 11 | 198 | 9.7 | 20.9 | 0.03 | 0.48 | 0.33 | 96 | 1007.7 |
| 20260509121540 | 11 | 203 | 9.7 | 19.3 | 0.03 | 0.48 | 0.33 | 96 | 1007.8 |
| 20260509120135 | 10 | 193 | 12.9 | 22.5 | 0.03 | 0.48 | 0.33 | 96 | 1007.8 |
| 20260509114535 | 10 | 210 | 9.7 | 16.1 | 0.03 | 0.48 | 0.33 | 97 | 1007.9 |
| 20260509113032 | 10 | 203 | 9.7 | 14.5 | 0.00 | 0.46 | 0.30 | 96 | 1007.7 |
| 20260509111530 | 10 | 197 | 8.0 | 12.9 | 0.00 | 0.46 | 0.30 | 97 | 1007.6 |
| 20260509110029 | 10 | 212 | 9.7 | 12.9 | 0.00 | 0.46 | 0.30 | 97 | 1007.5 |
| 20260509104531 | 10 | 188 | 8.0 | 11.3 | 0.00 | 0.46 | 0.30 | 97 | 1007.5 |
| 20260509103026 | 10 | 190 | 9.7 | 12.9 | 0.03 | 0.46 | 0.30 | 97 | 1007.6 |
| 20260509101525 | 10 | 195 | 9.7 | 12.9 | 0.05 | 0.46 | 0.30 | 97 | 1007.5 |
| 20260509100024 | 10 | 199 | 9.7 | 14.5 | 0.08 | 0.46 | 0.30 | 97 | 1007.6 |
| 20260509094521 | 10 | 196 | 4.8 | 11.3 | 0.10 | 0.46 | 0.30 | 97 | 1007.7 |
| 20260509093020 | 10 | 169 | 4.8 | 9.7 | 0.10 | 0.43 | 0.28 | 97 | 1007.9 |
| 20260509091526 | 10 | 184 | 4.8 | 9.7 | 0.10 | 0.41 | 0.25 | 97 | 1008.1 |
| 20260509090015 | 10 | 163 | 4.8 | 11.3 | 0.08 | 0.38 | 0.23 | 97 | 1008.2 |
| 20260509084519 | 9 | 180 | 6.4 | 12.9 | 0.08 | 0.36 | 0.20 | 97 | 1008.3 |
| 20260509083011 | 9 | 194 | 6.4 | 12.9 | 0.05 | 0.33 | 0.18 | 97 | 1008.5 |